Garden City, KS

10:31 AM CDT on August 16, 2017 (GMT -0500)
Garden City Regional

Weather History for KGCK - June, 2014

Change the Weather History Date:

Friday, June 6, 2014

  Actual Average Record
Temperature  
Mean Temperature 72 °F 70 °F  
Max Temperature 86 °F 83 °F 100 °F (2011)
Min Temperature 57 °F 57 °F 40 °F (1998)
Degree Days  
Heating Degree Days 0 1  
Month to date heating degree days 0 7  
Since 1 June heating degree days 0 7  
Since 1 July heating degree days 5387 5198  
Cooling Degree Days 7 6  
Month to date cooling degree days 62 33  
Year to date cooling degree days 205 122  
Since 1 June cooling degree days 62 33  
Growing Degree Days 22 (Base 50)    
Moisture  
Dew Point 61 °F    
Average Humidity 63    
Maximum Humidity 93    
Minimum Humidity 32    
Precipitation  
Precipitation 0.43 in 0.11 in 1.97 in (1960)
Month to date precipitation 0.91 0.66  
Year to date precipitation 2.27 7.60  
Sea Level Pressure  
Sea Level Pressure 29.86 in    
Wind  
Wind Speed 14 mph (ESE)    
Max Wind Speed 32 mph    
Max Gust Speed 39 mph    
Visibility 9 miles    
Events Rain , Thunderstorm    
T = Trace of Precipitation, MM = Missing Value Source: NWS Daily Summary

Daily Weather History Graph

Daily Weather History Graph

Search for Another Location

Airport or City:

Trip Planner

Search our weather history database for the weather conditions in past years. The results will help you decide how hot, cold, wet, or windy it might be!

Date:

Astronomy

Jun. 06, 2014 Rise Set
Actual Time 6:20 AM CDT 9:02 PM CDT
Civil Twilight 5:49 AM CDT 9:33 PM CDT
Nautical Twilight 5:10 AM CDT 10:12 PM CDT
Astronomical Twilight 4:27 AM CDT 10:56 PM CDT
Moon 2:29 PM CDT (6/6) 2:06 AM CDT (6/6)
Length of Visible Light 15h 44m
Length of Day
14h 42m
First Quarter, 58% of the Moon is Illuminated
Jun 6
First Quarter
Jun 12
Full
Jun 19
Last Quarter
Jun 27
New
Jul 5
First Quarter

Hourly Weather History & Observations

Time (CDT) Temp. Heat Index Dew Point Humidity Pressure Visibility Wind Dir Wind Speed Gust Speed Precip Events Conditions
12:54 AM 70.0 °F - 60.1 °F 71% 29.86 in 10.0 mi East 5.8 mph - N/A   Clear
1:54 AM 68.0 °F - 61.0 °F 78% 29.86 in 10.0 mi ESE 5.8 mph - N/A   Clear
2:54 AM 66.0 °F - 62.1 °F 87% 29.87 in 9.0 mi North 10.4 mph - N/A   Clear
3:54 AM 64.9 °F - 60.1 °F 84% 29.85 in 10.0 mi ESE 10.4 mph - N/A   Clear
4:54 AM 64.0 °F - 61.0 °F 90% 29.85 in 8.0 mi SE 9.2 mph - N/A   Clear
5:54 AM 64.9 °F - 62.1 °F 90% 29.81 in 7.0 mi East 8.1 mph - 0.00 in Rain Light Rain
6:54 AM 64.0 °F - 62.1 °F 93% 29.86 in 4.0 mi SE 8.1 mph - 0.00 in   Clear
7:54 AM 66.0 °F - 62.1 °F 87% 29.96 in 10.0 mi NE 6.9 mph - N/A   Overcast
8:54 AM 66.0 °F - 63.0 °F 90% 29.90 in 9.0 mi ESE 9.2 mph - 0.00 in   Scattered Clouds
9:54 AM 68.0 °F - 64.4 °F 88% 29.94 in 10.0 mi ESE 15.0 mph - N/A   Clear
10:54 AM 78.1 °F - 59.0 °F 52% 29.79 in 10.0 mi East 19.6 mph - N/A   Clear
11:54 AM 84.0 °F - 52.0 °F 33% 29.82 in 10.0 mi ESE 17.3 mph - N/A   Clear
12:54 PM 84.9 °F 83.3 °F 54.0 °F 34% 29.82 in 10.0 mi SE 20.7 mph 26.5 mph N/A   Clear
1:54 PM 78.1 °F - 61.0 °F 56% 29.86 in 10.0 mi South 17.3 mph 26.5 mph N/A   Partly Cloudy
2:54 PM 75.9 °F - 61.0 °F 60% 29.85 in 10.0 mi SSE 13.8 mph - N/A   Partly Cloudy
3:16 PM 75.0 °F - 61.0 °F 62% 29.91 in 10.0 mi SSE 12.7 mph - N/A Thunderstorm Scattered Clouds
3:41 PM 73.9 °F - 63.0 °F 68% 29.90 in 10.0 mi South 15.0 mph - N/A   Scattered Clouds
3:54 PM 73.4 °F - 64.4 °F 73% 29.91 in 10.0 mi South 11.5 mph - N/A Rain , Thunderstorm Light Rain
4:14 PM 72.0 °F - 66.0 °F 81% 29.89 in 9.0 mi SSE 11.5 mph - 0.01 in Rain Light Rain
4:27 PM 72.0 °F - 66.0 °F 81% 29.90 in 10.0 mi ESE 8.1 mph - 0.01 in Thunderstorm Thunderstorm
4:37 PM 72.0 °F - 66.0 °F 81% 29.90 in 10.0 mi East 4.6 mph - 0.01 in   Mostly Cloudy
4:46 PM 72.0 °F - 66.0 °F 81% 29.88 in 10.0 mi ESE 10.4 mph - 0.01 in Thunderstorm Thunderstorm
4:54 PM 73.0 °F - 66.9 °F 81% 29.78 in 10.0 mi SE 16.1 mph - 0.01 in Thunderstorm Thunderstorm
5:04 PM 73.9 °F - 66.9 °F 79% 29.85 in 10.0 mi SE 16.1 mph - N/A   Scattered Clouds
5:35 PM 73.0 °F - 62.1 °F 68% 29.85 in 10.0 mi SE 27.6 mph 36.8 mph N/A Thunderstorm Scattered Clouds
5:52 PM 69.8 °F - 62.6 °F 78% 29.87 in 10.0 mi SE 23.0 mph 33.4 mph 0.01 in Rain , Thunderstorm Light Thunderstorms and Rain
5:54 PM 69.1 °F - 61.0 °F 75% 29.81 in 10.0 mi SE 20.7 mph 33.4 mph 0.01 in Rain , Thunderstorm Light Thunderstorms and Rain
6:19 PM 66.0 °F - 61.0 °F 84% 29.87 in 10.0 mi ESE 19.6 mph - 0.02 in Rain , Thunderstorm Light Rain
6:29 PM 64.9 °F - 61.0 °F 87% 29.85 in 10.0 mi ESE 18.4 mph - 0.02 in   Mostly Cloudy
6:37 PM 66.0 °F - 61.0 °F 84% 29.85 in 10.0 mi ESE 17.3 mph - 0.02 in Thunderstorm Thunderstorm
6:54 PM 66.9 °F - 60.1 °F 79% 29.77 in 10.0 mi East 15.0 mph - 0.03 in Rain , Thunderstorm Light Thunderstorms and Rain
7:54 PM 64.0 °F - 60.1 °F 87% 29.81 in 3.0 mi North - - 0.09 in Rain , Thunderstorm Light Thunderstorms and Rain
7:56 PM 61.0 °F - 57.9 °F 90% 29.88 in 1.5 mi SW 21.9 mph - 0.11 in Rain , Thunderstorm Thunderstorms and Rain
8:13 PM 62.1 °F - 61.0 °F 96% 29.86 in 3.0 mi West 21.9 mph 27.6 mph 0.29 in Rain , Thunderstorm Thunderstorms and Rain
8:17 PM 63.0 °F - 61.0 °F 93% 29.87 in 6.0 mi NW 19.6 mph - 0.29 in Rain , Thunderstorm Light Rain
8:23 PM 63.0 °F - 61.0 °F 93% 29.85 in 10.0 mi NNW 20.7 mph - 0.29 in Rain Light Rain
8:40 PM 64.0 °F - 62.1 °F 93% 29.83 in 10.0 mi NNE 26.5 mph 32.2 mph 0.29 in   Mostly Cloudy
8:54 PM 63.0 °F - 61.0 °F 93% 29.76 in 10.0 mi NE 24.2 mph 39.1 mph 0.29 in   Overcast
9:54 PM 64.0 °F - 55.9 °F 75% 29.87 in 10.0 mi North 20.7 mph - 0.00 in   Partly Cloudy
10:54 PM 60.1 °F - 54.0 °F 80% 29.85 in 10.0 mi NE 20.7 mph 31.1 mph N/A   Clear
11:54 PM 57.9 °F - 55.0 °F 90% 29.83 in 10.0 mi East 10.4 mph - N/A   Clear